EHI
0 0 0 0 0 0 0 0 0 0 0 0 0 0 0 0 0 0 0 0 5 17 25 17 6 1 2 5 7 7 11 17 22 26 27 25 22 18 14 10 8 7 6
0 0 0 0 0 0 0 0 0 0 0 0 0 0 0 0 0 0 0 0 4 14 25 24 15 7 3 4 6 7 9 13 19 25 28 31 32 32 29 24 19 17 17
0 0 0 0 0 0 0 0 0 0 0 0 0 0 0 0 0 0 0 0 1 7 17 22 21 15 7 4 3 3 4 7 11 15 19 25 31 36 38 34 29 29 32
0 0 0 0 0 0 0 0 0 0 0 0 0 0 0 0 0 0 0 0 0 1 5 9 13 13 9 3 0 0 1 1 2 4 6 9 14 19 22 22 22 26 31
0 0 0 0 0 0 0 0 0 0 0 0 0 0 0 0 0 0 0 0 0 0 0 1 2 4 3 1 0 0 0 0 0 0 0 1 2 3 4 5 7 11 14
0 0 0 0 0 0 0 0 0 0 0 0 0 0 0 0 0 0 0 0 0 0 0 0 0 0 0 0 0 0 0 0 0 0 0 0 0 0 0 0 0 1 2
0 0 0 0 0 0 0 0 0 0 0 0 0 0 0 0 0 0 0 0 0 0 0 0 0 0 0 0 0 0 0 0 0 0 0 0 0 0 0 0 0 0 0
0 0 0 0 0 0 0 0 0 0 0 0 0 0 0 0 0 0 0 0 0 0 0 0 0 0 0 0 0 0 0 0 0 0 0 0 0 0 0 0 0 0 0
0 0 0 0 0 0 0 0 0 0 0 0 0 0 0 0 0 0 0 0 0 0 0 0 0 0 0 0 0 0 0 0 0 0 0 0 0 0 0 0 0 0 0
0 0 0 0 0 0 0 0 0 0 0 0 0 0 0 0 0 0 0 0 0 0 0 0 0 0 0 0 0 0 0 0 0 0 0 0 0 0 0 0 0 0 0
0 0 0 0 0 0 0 0 0 0 0 0 0 0 0 0 0 0 0 0 0 0 0 0 0 0 0 0 0 0 0 0 0 0 0 0 0 0 0 0 0 0 0
0 0 0 0 0 0 0 0 0 0 0 0 0 0 0 0 0 0 0 0 0 0 0 0 0 0 0 0 0 0 0 0 0 0 0 0 0 0 0 0 0 0 0
0 0 0 0 0 0 0 0 0 0 0 0 0 0 0 0 0 0 0 0 0 0 0 0 0 0 0 0 0 0 0 0 0 0 0 0 0 0 0 0 0 0 0
0 0 0 0 0 0 0 0 0 0 0 0 0 0 0 0 0 0 0 0 0 0 0 0 0 0 0 0 0 0 0 0 0 0 0 0 0 0 0 0 0 0 0
0 0 0 0 0 0 0 0 0 0 0 0 0 0 0 0 0 0 0 0 0 0 0 0 0 0 0 0 0 0 0 0 0 0 0 0 0 0 0 0 0 0 0
0 0 0 0 0 0 0 0 0 0 0 0 0 0 0 0 0 0 0 0 0 0 0 0 0 0 0 0 0 0 0 0 0 0 0 0 0 0 0 0 0 0 0
0 0 0 0 0 0 0 0 0 0 0 0 0 0 0 0 0 0 0 0 0 0 0 0 0 0 0 0 0 0 0 0 0 0 0 0 0 0 0 0 0 0 0
0 0 0 0 0 0 0 0 0 0 0 0 0 0 0 0 0 0 0 0 0 0 0 0 0 0 0 0 0 0 0 0 0 0 0 0 0 0 0 0 0 0 0
0 0 0 0 0 0 0 0 0 0 0 0 0 0 0 0 0 0 0 0 0 0 0 0 0 0 0 0 0 0 0 0 0 0 0 0 0 0 0 0 0 0 0
0 0 0 0 0 0 0 0 0 0 0 0 0 0 0 0 0 0 0 0 0 0 0 0 0 0 0 0 0 0 0 0 0 0 0 0 0 0 0 0 0 0 0
0 0 0 0 0 0 0 0 0 0 0 0 0 0 0 0 0 0 0 0 0 0 0 0 0 0 0 0 0 0 0 0 0 0 0 0 0 0 0 0 0 0 0
0 0 0 0 0 0 0 0 0 0 0 0 0 0 0 0 0 0 0 0 0 0 0 0 0 0 0 0 0 0 0 0 0 0 0 0 0 0 0 0 0 0 0
0 0 0 0 0 0 0 0 0 0 0 0 0 0 0 0 0 0 0 0 0 0 0 0 0 0 0 0 0 0 0 0 0 0 0 0 0 0 0 0 0 0 0
0 0 0 0 0 0 0 0 0 0 0 0 0 0 0 0 0 0 0 0 0 0 0 0 0 0 0 0 0 0 0 0 0 0 0 0 0 0 0 0 0 0 0
0 0 0 0 0 0 0 0 0 0 0 0 0 0 0 0 0 0 0 0 0 0 0 0 0 0 0 0 0 0 0 0 0 0 0 0 0 0 0 0 0 0 0
0 0 0 0 0 0 0 0 0 0 0 0 0 0 0 0 0 0 0 0 0 0 0 0 0 0 0 0 0 0 0 0 0 0 0 0 0 0 0 0 0 0 0
Wind_Speed
4 3 3 2 3 3 3 3 2 2 2 2 3 5 5 4 3 2 2 8 8 8 9 10 10 10 10 10 10 11 11 12 12 12 12 12 12 12 13 12 12 13 14
4 4 4 3 3 3 3 3 3 4 3 3 4 4 4 4 3 2 0 2 6 7 8 9 10 10 10 10 10 11 11 11 11 11 10 10 10 10 11 11 11 12 13
7 6 5 3 3 3 4 4 4 4 4 4 5 5 4 5 4 4 2 2 3 7 9 9 8 9 10 11 12 12 11 11 10 9 8 8 7 7 8 8 9 10 11
7 6 4 3 3 4 4 4 3 3 4 4 4 4 4 4 5 4 3 3 2 3 5 7 6 6 7 9 11 12 13 12 10 8 7 6 4 3 2 3 4 6 8
8 6 5 4 4 4 4 4 4 3 4 4 4 4 4 4 4 5 6 6 5 4 4 7 11 11 10 11 11 10 11 11 9 7 6 6 4 1 1 2 3 4 6
8 7 6 5 5 5 4 4 5 5 4 3 4 4 4 4 3 4 5 5 5 6 5 6 6 8 13 13 13 13 11 10 9 7 7 7 6 3 1 1 3 5 7
8 7 6 5 5 4 4 4 3 5 5 4 3 4 4 3 3 3 3 4 5 5 5 5 4 4 5 11 13 14 13 13 12 10 9 9 7 5 4 5 6 7 8
7 7 6 5 5 5 6 6 4 3 3 4 2 2 4 5 3 3 3 4 5 4 5 6 5 5 4 3 8 14 14 14 14 14 14 12 10 10 9 9 9 9 10
7 6 7 6 6 6 5 5 5 4 2 3 3 3 2 2 4 4 3 4 4 4 4 4 5 5 5 4 4 9 14 14 16 17 17 16 14 12 12 12 12 13 14
6 7 7 7 6 5 5 4 4 3 3 2 2 3 2 2 1 5 5 4 4 4 4 4 5 5 5 4 6 12 15 15 17 18 19 19 19 17 16 15 14 15 16
5 6 6 6 6 4 4 4 3 3 2 2 1 1 1 1 1 2 4 6 5 4 3 3 4 4 5 4 4 10 17 17 17 18 18 18 18 18 17 16 16 16 18
3 5 6 5 5 4 3 3 3 3 2 1 1 1 1 2 3 3 4 5 5 5 5 4 4 4 5 5 8 17 19 17 16 16 15 16 16 17 17 17 17 17 18
3 3 4 4 3 2 2 2 2 1 1 2 3 3 3 4 4 3 4 5 5 4 4 4 5 5 6 4 6 18 18 17 15 14 15 16 17 17 17 16 16 17 18
3 3 4 3 3 2 3 2 1 2 3 4 6 5 4 5 4 4 4 5 7 5 4 6 4 5 6 5 9 17 11 17 15 14 14 16 18 18 19 18 17 17 17
3 4 3 2 2 2 3 3 3 4 2 2 4 4 3 4 3 3 3 3 4 8 7 4 4 5 6 6 11 8 7 14 18 17 16 17 18 18 19 19 19 18 17
4 4 3 2 1 2 3 2 2 3 3 3 2 3 3 2 3 2 2 2 3 4 6 3 4 6 8 10 13 8 6 18 19 20 20 19 19 19 19 20 20 19 18
4 3 1 1 1 1 3 4 4 4 4 4 4 4 4 4 3 3 3 3 3 3 7 6 4 5 7 9 9 7 8 8 10 20 21 19 18 18 18 17 18 18 17
3 2 2 3 5 6 6 6 5 4 4 4 5 5 6 5 5 5 4 5 5 5 5 10 6 5 7 8 8 9 9 9 7 15 17 15 13 11 10 10 10 10 11
6 6 6 7 6 6 5 4 3 3 3 4 5 5 6 6 6 6 6 6 5 6 5 8 10 6 5 6 6 7 8 6 8 8 8 7 7 6 5 6 7 8 9
7 6 5 5 5 4 4 3 2 3 4 5 6 6 6 6 7 7 6 6 7 7 8 9 10 8 6 6 5 5 6 5 6 7 9 8 8 8 9 9 10 12 12
5 4 4 4 3 3 2 2 3 5 5 7 7 7 7 11 13 9 9 8 8 8 9 9 9 8 7 5 5 5 7 6 6 6 6 6 5 4 5 9 12 15 14
5 5 5 3 1 1 2 5 6 5 6 7 8 8 9 10 13 17 19 19 17 13 12 11 10 10 10 7 6 6 7 7 6 4 4 5 3 5 5 5 12 15 14
4 4 4 3 1 0 2 6 10 6 6 7 7 7 9 10 13 9 13 18 18 21 21 15 13 12 10 8 8 9 9 9 9 5 4 6 5 7 6 8 14 13 12
2 2 2 3 2 2 3 6 10 7 6 7 7 8 9 10 10 11 11 12 12 12 15 11 10 11 11 10 10 11 11 9 8 7 6 6 4 5 5 4 8 9 8
2 2 3 4 3 1 1 5 8 5 6 8 8 9 10 10 13 15 13 12 12 12 13 13 13 13 14 15 12 7 6 6 6 5 4 4 2 2 1 1 3 7 8
3 4 4 4 2 1 4 7 9 4 6 7 8 9 12 12 15 17 11 10 11 11 11 10 9 8 7 6 6 3 4 4 3 3 1 1 1 0 1 1 1 3 5
Wind_Direction
183 190 186 201 214 196 200 222 207 177 161 131 90 79 78 85 114 165 214 216 222 225 219 218 223 227 231 235 238 239 239 239 239 238 236 233 231 229 228 229 228 227 226
163 158 156 167 175 157 148 136 133 123 106 83 62 55 54 53 69 75 15 270 256 250 245 243 246 252 257 258 258 259 259 260 259 257 254 250 247 244 241 240 240 238 235
150 142 141 150 152 128 116 99 84 72 60 46 37 27 28 22 27 31 26 337 311 293 280 270 269 273 278 280 278 275 272 270 269 269 268 268 267 267 266 260 256 254 250
133 122 118 111 99 88 86 81 65 60 45 33 14 3 8 6 4 4 13 6 344 322 321 325 324 319 309 305 295 287 282 279 270 264 258 257 260 275 298 305 291 282 276
109 103 97 90 86 78 66 68 57 63 45 21 2 359 358 350 353 8 16 18 22 22 11 16 25 26 21 12 358 336 315 302 292 281 262 251 243 208 93 25 345 321 308
102 98 91 81 78 74 60 59 64 53 48 22 3 351 334 341 15 38 35 32 32 33 31 28 20 17 23 21 13 2 346 326 305 286 269 260 244 191 139 344 334 329 321
90 87 88 74 68 73 70 71 72 54 34 21 31 350 335 357 38 50 37 34 21 13 19 23 17 15 7 13 5 357 349 339 323 304 286 277 267 245 243 268 288 298 304
81 85 83 75 68 74 61 52 60 67 30 28 65 42 351 342 342 7 13 31 13 359 5 10 19 19 5 0 348 351 344 337 322 306 292 283 275 270 269 269 275 283 288
79 88 84 77 71 77 80 73 73 89 67 27 55 98 80 310 314 324 355 15 359 356 353 354 12 7 2 356 339 341 338 333 321 306 294 283 274 269 270 272 274 277 280
96 96 87 82 85 92 98 91 87 94 101 58 30 52 111 173 275 315 323 332 343 351 347 349 349 344 347 343 339 343 339 335 324 311 295 283 275 270 269 271 272 273 275
96 100 96 95 100 99 105 102 93 82 98 112 86 50 36 35 150 186 290 312 322 315 310 311 315 316 319 318 316 313 323 322 319 313 303 291 280 272 267 266 266 269 271
94 99 97 99 109 113 120 125 97 78 93 104 156 183 192 229 251 224 248 271 280 284 289 289 289 287 289 287 292 308 311 310 309 307 302 297 292 284 275 270 269 269 270
104 105 97 107 111 118 119 116 93 84 221 232 232 236 230 228 228 234 252 268 266 266 269 268 260 265 276 274 286 297 299 297 294 296 295 292 289 282 275 270 268 268 270
123 128 116 122 126 121 130 153 183 235 228 231 240 241 250 258 253 248 253 276 290 279 255 257 266 258 264 266 271 286 284 285 284 286 284 284 283 278 271 265 263 262 264
109 117 127 143 155 166 186 204 237 259 279 277 276 281 282 281 282 277 276 267 281 299 296 264 272 272 274 269 272 271 262 281 288 283 280 279 278 274 266 259 258 258 256
113 123 129 152 224 256 261 260 305 347 26 9 357 359 323 292 297 296 285 274 253 266 287 266 265 271 282 289 288 282 274 290 291 288 282 277 273 269 261 255 254 253 249
118 120 134 166 252 351 38 66 67 59 52 20 359 344 317 299 285 282 276 268 261 254 281 285 256 269 275 277 284 283 278 274 276 281 281 277 272 267 259 255 254 249 243
75 57 44 47 62 74 75 77 63 45 26 355 333 322 306 299 285 273 268 263 261 252 259 286 287 274 270 272 274 276 284 286 279 284 284 282 275 270 263 260 258 250 240
53 49 60 80 87 84 78 71 62 28 352 324 310 302 295 290 285 280 275 269 267 273 258 276 287 276 270 274 279 281 281 283 287 296 306 319 316 306 294 282 276 264 251
65 66 82 100 102 98 84 61 32 355 331 317 307 300 296 292 285 284 287 279 281 279 273 275 282 280 269 265 261 271 286 279 284 294 291 281 276 274 272 274 271 264 255
76 76 82 100 112 99 75 39 355 341 326 316 308 299 299 308 312 311 310 302 297 291 287 282 284 282 274 270 265 265 279 282 278 264 264 263 255 252 259 266 268 264 257
66 60 59 69 86 84 51 16 355 326 315 308 304 301 303 305 311 315 312 308 303 298 296 289 286 282 278 269 268 269 271 277 280 250 227 252 229 247 251 248 254 254 253
68 64 54 54 61 348 43 12 352 333 310 303 302 304 310 309 312 305 307 308 302 296 290 286 284 284 282 274 271 273 268 266 266 256 241 260 242 251 252 253 249 242 242
76 69 37 25 36 60 57 10 344 332 308 303 302 300 299 303 305 307 308 301 295 292 287 285 276 276 275 272 268 272 274 272 266 258 236 254 245 244 250 239 237 219 209
54 41 33 28 44 52 360 341 343 317 307 306 306 307 308 305 305 309 309 301 299 298 299 289 279 278 277 277 278 277 271 272 274 264 221 227 233 232 246 237 209 202 209
63 50 35 26 35 272 285 332 349 323 318 318 313 309 310 307 310 315 313 304 303 307 310 310 305 300 297 302 320 318 314 302 295 288 307 256 226 177 274 270 220 215 228